Location: Boiro
(42.6475°N, 8.8834°W)
Time: 20:03:26
(UTC+01:00)

Altair - Visible Passes

Search period start: 30 November 2021 00:00
Search period end: 10 December 2021 00:00
Orbit: 1502 x 1682 km, 47.2° (Epoch: 30 November)

Date Brightness Start Highest point End Pass type
(mag) Time Alt. Az. Time Alt. Az. Time Alt. Az.
30 Nov 7.5 20:02:22 10° W 20:11:43 70° N 20:15:54 37° ENE visible
30 Nov 8.1 22:07:53 10° WNW 22:13:55 46° WNW 22:13:55 46° WNW visible
01 Dec 7.5 19:37:06 10° W 19:46:30 72° NNW 19:52:05 27° ENE visible
01 Dec 7.7 21:42:39 10° WNW 21:50:06 59° NW 21:50:06 59° NW visible
01 Dec 9.6 23:47:37 10° WNW 23:48:07 12° WNW 23:48:07 12° WNW visible
02 Dec 7.5 19:11:50 10° W 19:21:16 74° NNW 19:28:16 20° ENE visible
02 Dec 7.4 21:17:26 10° WNW 21:26:17 70° N 21:26:17 70° N visible
02 Dec 9.3 23:22:25 10° WNW 23:24:18 18° WNW 23:24:18 18° WNW visible
03 Dec 7.6 18:46:35 10° WSW 18:56:03 76° NNW 19:04:28 13° ENE visible
03 Dec 7.3 20:52:12 10° WNW 21:01:30 69° N 21:02:29 65° NE visible
03 Dec 9.0 22:57:14 10° WNW 23:00:31 25° WNW 23:00:31 25° WNW visible
04 Dec 7.6 18:21:20 10° WSW 18:30:51 78° NNW 18:40:07 10° ENE visible
04 Dec 7.4 20:26:57 10° WNW 20:36:17 68° N 20:38:43 51° ENE visible
04 Dec 8.5 22:32:02 10° WNW 22:36:43 35° WNW 22:36:43 35° WNW visible
05 Dec 7.5 20:01:42 10° WNW 20:11:03 68° N 20:14:58 38° ENE visible
05 Dec 8.1 22:06:51 10° WNW 22:13:00 48° WNW 22:13:00 48° WNW visible
06 Dec 7.5 19:36:27 10° W 19:45:49 67° N 19:51:15 28° E visible
06 Dec 7.6 21:41:39 10° WNW 21:49:17 65° WNW 21:49:17 65° WNW visible
06 Dec 9.7 23:46:58 10° WNW 23:47:19 11° WNW 23:47:19 11° WNW visible
07 Dec 7.5 19:11:12 10° W 19:20:35 67° N 19:27:35 19° E visible
07 Dec 7.3 21:16:26 10° WNW 21:25:37 86° WSW 21:25:37 86° WSW visible
07 Dec 9.4 23:21:40 10° WNW 23:23:38 17° W 23:23:38 17° W visible
08 Dec 7.6 18:45:55 10° W 18:55:21 67° N 19:03:57 12° E visible
08 Dec 7.2 20:51:14 10° WNW 21:00:36 90° NE 21:02:00 69° ESE visible
08 Dec 9.0 22:56:24 10° WNW 23:00:02 24° W 23:00:02 24° W visible
09 Dec 7.6 18:20:38 10° W 18:30:06 67° N 18:39:18 10° E visible
09 Dec 7.3 20:26:02 10° WNW 20:35:25 86° NNE 20:38:27 49° ESE visible
09 Dec 8.6 22:31:08 10° WNW 22:36:30 33° W 22:36:30 33° W visible
